SBIRS GEO-4 (USA 273)

Last updated on Wed Sep 17 2025 00:02:49 GMT+0000 (Coordinated Universal Time)

1 41937U 17004A 25259.58789204 .00000105 00000+0 00000+0 0 9996 2 41937 1.7669 32.7338 0001840 148.4904 47.0704 1.00270157 31856
UTC large
Height (km)
Speed (km/s)
/
Latitude / Longitude
Inclination (degrees)
Orbital Period (minutes)
Azimuth
Elevation
Range (km)
Doppler Factor

Next 0 passes for location: London (51.5072 / 0.1276)

Sorry there are no passes over London.